Simultaneous Nadir Overpasses (SNOs) Predictions

Prediction of SNOs between GOES-16 and METOP-B Satellite Orbit:

Table of predicted SNOs for the next 14.0 days since TLE Epoch: 10/12/2024
Index Date Time (GOES-16) GOES-16 Lat,Lon METOP-B Lat,Lon Distance(km) Time Diff (sec)
1 10/13/2024 14:26:01 -0.05, -75.22 0.44, -77.32 240.74 80
2 10/14/2024 14:07:59 -0.05, -75.22 -0.67, -72.33 329.84 80
3 10/16/2024 02:24:15 0.05, -75.23 -0.30, -76.93 193.26 80
4 10/17/2024 02:06:11 0.05, -75.24 0.77, -71.92 377.75 80
5 10/18/2024 14:24:58 -0.05, -75.27 0.23, -76.47 138.00 80
6 10/19/2024 14:04:15 -0.05, -75.28 -0.92, -71.48 433.28 80
7 10/21/2024 02:20:29 0.05, -75.28 -0.12, -76.06 88.83 80
8 10/22/2024 02:02:26 0.04, -75.30 0.99, -71.06 482.82 80
9 10/23/2024 14:21:11 -0.04, -75.33 0.02, -75.61 31.70 80
10 10/26/2024 02:16:41 0.03, -75.37 0.05, -75.19 20.39 80
